Hourly Data Report for September 23, 2017

All times are specified in Local Standard Time (LST). Add 1 hour to adjust for Daylight Saving Time where and when it is observed.

IQALUIT CLIMATE
NUNAVUT

63°44'50.000" N
68°32'40.000" W
33.50 m
2402592
71321
XFB

Download Data

Hourly Data (September 2017)
Hourly Data Report for September 23, 2017
Temp Definition
°C
Dew Point Temp Definition
°C
Rel Hum Definition
%
Wind Dir Definition
10's deg

Wind Spd Definition
km/h
Visibility Definition
km
Stn Press Definition
kPa
Hmdx Definition


Wind Chill Definition


Weather Definition


TIME
00:00 -2.0 -5.2 78 35 11   101.05   -6 LegendNANA
01:00 -3.4 -5.6 85 35 9   101.04   -7 LegendNANA
02:00 -2.1 -4.9 81 35 11   101.04   -6 LegendNANA
03:00 -2.0 -5.7 75 33 13   101.07   -6 LegendNANA
04:00 -2.8 -5.4 82 32 16   101.12   -8 LegendNANA
05:00 -2.8 -5.5 82 35 16   101.18   -8 LegendNANA
06:00 -2.7 -4.9 85 33 13   101.23   -7 LegendNANA
07:00 -1.5 -4.2 82 32 15   101.24   -6 LegendNANA
08:00 -0.2 -3.9 76 33 16   101.25   -5 LegendNANA
09:00 1.4 -4.0 67 32 14   101.27     LegendNANA
10:00 2.2 -3.9 64 31 19   101.25     LegendNANA
11:00 1.6 -4.2 65 32 24   101.23     LegendNANA
12:00 2.1 -3.8 65 34 24   101.24     LegendNANA
13:00 1.8 -4.4 63 31 19   101.23     LegendNANA
14:00 2.3 -4.1 62 32 22   101.23     LegendNANA
15:00 2.1 -4.3 63 32 28   101.20     LegendNANA
16:00 1.3 -4.5 65 31 26   101.19     LegendNANA
17:00 1.1 -4.0 69 31 20   101.17     LegendNANA
18:00 0.8 -4.1 70 33 17   101.14     LegendNANA
19:00 0.7 -3.5 74 33 10   101.09     LegendNANA
20:00 0.6 -2.9 78 33 10   101.07     LegendNANA
21:00 0.6 -1.9 83 31 9   101.02     LegendNANA
22:00 1.0 -2.3 78 32 23   100.97     LegendNANA
23:00 1.1 -3.6 71 32 22   100.94     LegendNANA

Notes on Data Quality.

Legend

  • E = Estimated
  • M = Missing
  • NA = Not Available
  • ‡ = Partner data that is not subject to review by the National Climate Archives
Date modified: